#timestamp,LO_Frequency,Hit 
1500591615.6,286047059.9,N
1500591635.5,286047057.3,N
1500591655.3,286047057.9,N
1500591675.1,286047060.4,N
1500591695.9,286047059.4,N
1500591715.7,286047059.7,N
1500591735.5,286047060.9,N
1500591755.4,286047060.6,N
1500591775.2,286047063.1,N
1500591795.0,286047063.5,N
1500591795.9,286047063.5,N
1500591815.8,286047059.5,N
1500591835.6,286047059.8,N
1500591855.4,286047061.4,N
1500591875.2,286047060.8,N
1500591895.1,286047061.4,N
1500591896.0,286047061.4,N
1500591915.8,286047059.5,N
1500591935.6,286047059.7,N
1500591955.5,286047060.2,N
1500591975.3,286047059.8,N
1500591995.1,286047060.9,N
1500592015.9,286047065.2,N
1500592035.7,286047064.0,N
1500592055.5,286047063.8,N
1500592075.4,286047062.3,N
1500592095.2,286047062.4,N
1500592115.0,286047064.5,N
1500592115.9,286047064.5,N
1500592135.8,286047064.4,N
1500592155.6,286047066.6,N
1500592175.4,286047063.9,N
1500592195.3,286047064.7,N
1500592215.1,286047062.5,N
1500592216.0,286047062.5,N
1500592235.8,286047060.9,N
1500592255.7,286047061.5,N
1500592275.5,286047060.1,N
1500592295.3,286047059.1,N
1500592315.2,286047065.1,N
1500592335.9,286047064.7,N
1500592355.7,286047062.1,N
1500592375.6,286047062.6,N
1500592395.4,286047065.0,N
1500592415.2,286047066.2,N
1500592435.1,286047065.4,N
1500592436.0,286047065.4,N
1500592455.8,286047063.8,N
1500592475.1,286047068.0,N
1500592495.8,286047067.6,N
1500592515.7,286047068.3,N
1500592535.5,286047068.3,N
1500592555.3,286047068.2,N
1500592575.2,286047066.0,N
1500592595.9,286047066.0,N
1500592615.7,286047065.8,N
1500592635.6,286047067.6,N
1500592655.4,286047069.6,N
1500592675.2,286047069.6,N
1500592695.0,286047068.0,N
1500592696.0,286047068.0,N
1500592715.8,286047066.0,N
1500592735.6,286047066.8,N
1500592755.4,286047066.0,N
1500592775.3,286047069.6,N
1500592795.1,286047070.0,N
1500592815.8,286047068.3,N
1500592835.7,286047069.8,N
1500592855.5,286047067.0,N
1500592875.3,286047068.7,N
1500592895.2,286047069.7,N
1500592915.9,286047065.6,N
1500592935.7,286047068.3,N
1500592955.6,286047067.6,N
1500592975.4,286047071.5,N
1500592995.2,286047071.1,N
1500593015.1,286047068.7,N
1500593016.0,286047068.7,N
1500593035.8,286047067.1,N
1500593055.6,286047071.0,N
1500593075.5,286047071.5,N
1500593095.3,286047071.6,N
1500593115.1,286047070.8,N
1500593135.9,286047070.9,N
1500593155.7,286047069.8,N
1500593175.5,286047067.0,N
1500593195.4,286047070.0,N
1500593215.2,286047067.1,N
1500593235.0,286047068.0,N
1500593235.9,286047068.0,N
1500593255.8,286047067.8,N
1500593275.6,286047070.0,N
1500593295.4,286047070.0,N
1500593315.2,286047065.3,N
1500593335.1,286047067.2,N
1500593336.0,286047067.2,N
1500593355.8,286047067.0,N
1500593375.6,286047067.2,N
1500593395.5,286047069.7,N
1500593415.3,286047070.4,N
1500593435.1,286047070.9,N
1500593455.9,286047071.6,N
1500593475.7,286047071.6,N
1500593495.5,286047071.6,N
1500593515.4,286047069.6,N
1500593535.2,286047068.9,N
1500593555.0,286047071.6,N
1500593555.9,286047071.6,N
1500593575.8,286047070.3,N
1500593595.6,286047073.2,N
1500593615.4,286047071.6,N
1500593635.3,286047068.7,N
1500593655.1,286047071.3,N
1500593656.0,286047071.3,N
1500593675.8,286047072.2,N
1500593695.7,286047074.3,N
1500593715.5,286047072.0,N
1500593735.3,286047074.1,N
1500593755.2,286047074.1,N
1500593775.9,286047073.6,N
1500593795.7,286047074.4,N
1500593815.6,286047074.8,N
1500593835.4,286047074.3,N
1500593855.2,286047071.8,N
1500593875.0,286047074.1,N
1500593876.0,286047074.1,N
1500593895.8,286047075.9,N
1500593915.6,286047076.2,N
1500593935.4,286047075.4,N
1500593955.3,286047078.7,N
1500593975.1,286047078.2,N
1500593995.8,286047079.9,N
1500594015.7,286047079.8,N
1500594035.5,286047081.2,N
1500594055.3,286047076.5,N
1500594075.2,286047079.6,N
1500594095.9,286047078.8,N
1500594115.7,286047078.5,N
1500594135.6,286047078.0,N
1500594155.4,286047079.0,N
1500594175.2,286047076.6,N
1500594195.1,286047079.0,N
1500594196.0,286047079.0,N
1500594215.8,286047080.6,N
1500594235.6,286047080.9,N
1500594255.5,286047080.5,N
1500594275.3,286047079.6,N
1500594295.1,286047076.5,N
1500594315.9,286047078.7,N
1500594335.7,286047080.4,N
1500594355.5,286047079.7,N
1500594375.4,286047081.0,N
1500594395.2,286047082.0,N
1500594415.0,286047084.4,N
1500594415.9,286047084.4,N
1500594435.8,286047080.1,N
1500594455.6,286047080.2,N
1500594475.4,286047080.3,N
1500594495.2,286047082.4,N
1500594515.1,286047080.5,N
1500594516.0,286047080.5,N
1500594535.8,286047078.4,N
1500594555.6,286047079.8,N
1500594575.5,286047082.1,N
1500594595.3,286047083.0,N
1500594615.1,286047082.2,N
1500594635.9,286047081.5,N
1500594655.7,286047080.0,N
1500594675.5,286047081.0,N
1500594695.4,286047082.4,N
1500594715.2,286047080.0,N
1500594735.0,286047080.8,N
1500594735.9,286047080.8,N
1500594755.8,286047081.1,N
1500594775.6,286047082.4,N
1500594795.4,286047078.4,N
1500594815.3,286047079.9,N
1500594835.1,286047082.3,N
1500594836.0,286047082.3,N
1500594855.8,286047082.6,N
1500594875.7,286047080.7,N
1500594895.5,286047080.0,N
1500594915.3,286047080.1,N
1500594935.2,286047080.3,N
1500594955.9,286047080.2,N
1500594975.7,286047082.4,N
1500594995.6,286047082.0,N
1500595015.4,286047081.6,N
1500595035.2,286047084.4,N
1500595055.1,286047079.7,N
1500595056.0,286047079.7,N
1500595075.8,286047082.0,N
1500595095.6,286047081.6,N
1500595115.5,286047083.3,N
1500595135.3,286047083.4,N
1500595155.1,286047082.9,N
1500595175.8,286047084.8,N
1500595195.7,286047083.2,N
